Location: Abundant Grace Fellowship
(35.0349°N, 90.0924°W)
Time: 08:28:04
(UTC+00:00)

Cosmos 1023 Rocket - Pass Details

Date: 18 January 2026
Orbit: 731 x 768 km, 74.1° (Epoch: 9 February)

Event Time Altitude Azimuth Distance (km) Brightness Sun altitude
Exits shadow 11:14:21 13° 206° (SSW) 2,035 6.5 -22.8°
Maximum altitude 11:18:51 69° 288° (WNW) 788 4.3 -21.9°
Drops below altitude 10° 11:23:56 10° 12° (NNE) 2,253 6.9 -20.9°
Sets 11:26:19 0° 15° (NNE) 3,186 7.8 -20.4°
